Home > Weather > Nadi > Past weeks

Flag for Fiji Past Weather in Nadi, Fiji — Yesterday and Last 2 Weeks

Now
72 °F

Passing clouds.


Feels Like: 71 °F
Forecast: 75 / 84 °F
Wind: No wind

Location: Nandi

Current Time: Jun 29, 2016 at 11:06:12 PM

Latest Report: Jun 29, 2016 at 10:00 PM


Visibility: N/A

Pressure: 29.98 "Hg

Humidity: 83%

Dew Point: 66 °F

Location of NadiLocation

Past Weather in Nadi — Graph

°F

Nadi Temperature Yesterday

Maximum temperature yesterday: 86 °F (at 1:00 PM)
Minimum temperature yesterday: 66 °F (at 6:00 AM)
Average temperature yesterday: 76 °F

High & Low Weather Summary for the Past Weeks

 TemperatureHumidityPressure
High90 °F (Jun 18, 3:00 PM)100% (Jun 16, 2:00 AM)30.01 "Hg (Jun 16, 2:00 AM)
Low63 °F (Jun 22, 5:00 AM)39% (Jun 21, 11:00 AM)29.80 "Hg (Jun 15, 3:00 PM)
Average76 °F76%29.93 "Hg
* Reported Jun 14 9:00 PM — Jun 29 9:00 PM, Nadi, Weather by CustomWeather, © 2016

Note: Actual official high and low records may vary slightly from our data, if they occured in-between our weather recording intervals... More about our weather records

Advertising

Nadi Weather History for the Previous 24 Hours

Scroll right to see more
 ConditionsComfort  
Time TempWeatherWind HumidityBarometerVisibility
9:00 PM
Wed, Jun 29
73 °FPassing clouds.3 mph78%29.98 "HgN/A
8:00 PM75 °FPassing clouds.5 mph74%29.98 "HgN/A
7:00 PM77 °FPassing clouds.6 mph65%29.95 "HgN/A
6:00 PM79 °FPassing clouds.8 mph65%29.95 "HgN/A
5:00 PM82 °FPassing clouds.9 mph58%29.92 "HgN/A
4:00 PM84 °FPassing clouds.10 mph58%29.89 "HgN/A
3:00 PM84 °FPassing clouds.12 mph55%29.89 "HgN/A
2:00 PM84 °FPassing clouds.10 mph55%29.89 "HgN/A
1:00 PM82 °FPassing clouds.10 mph58%29.92 "HgN/A
12:00 PM84 °FPassing clouds.10 mph51%29.95 "HgN/A
11:00 AM84 °FPassing clouds.3 mph51%29.98 "HgN/A
10:00 AM81 °FPassing clouds.6 mph58%30.01 "HgN/A
9:00 AM75 °FPassing clouds.6 mph69%30.01 "HgN/A
8:00 AM68 °FPassing clouds.6 mph83%30.01 "HgN/A
7:00 AM64 °FPassing clouds.7 mph88%29.98 "HgN/A
6:00 AM63 °FPassing clouds.6 mph94%29.95 "HgN/A
5:00 AM64 °FPassing clouds.5 mph88%29.95 "HgN/A
4:00 AM64 °FPassing clouds.No wind94%29.95 "HgN/A
3:00 AM64 °FPassing clouds.6 mph88%29.95 "HgN/A
2:00 AM64 °FPassing clouds.3 mph94%29.98 "HgN/A
1:00 AM68 °FPassing clouds.5 mph83%29.98 "HgN/A
12:00 AM68 °FPassing clouds.5 mph83%30.01 "HgN/A
11:00 PM
Tue, Jun 28
70 °FPassing clouds.6 mph83%30.01 "HgN/A
Weather by CustomWeather, © 2016

See weather overviewHow to use our weather pages